Regional Weather Roundup
Issued by NWS

Home | Current Version | Previous Version | Text Only | Print | Product List | Glossary On
Versions: 1 2 3 4 5 6 7 8 9 10 11 12 13 14 15 16 17 18 19 20 21 22 23 24 25 26 27 28 29 30 31 32 33 34 35 36 37 38 39 40 41 42 43 44 45 46 47 48 49
000
ASUS42 KFFC 301503
RWRGA
WEATHER ROUNDUP FOR GEORGIA
NATIONAL WEATHER SERVICE PEACHTREE CITY GA
1100 AM EDT SAT MAY 30 2015

NOTE: "FAIR" INDICATES FEW OR NO CLOUDS BELOW 12,000 FEET WITH NO
SIGNIFICANT WEATHER AND/OR OBSTRUCTIONS TO VISIBILITY.

* = USE WITH CAUTION. THE STATIONS MARKED WITH AN ASTERISK MAY NOT
REPORT WEATHER SUCH AS PRECIPITATION, FOG, OR THUNDER AND ARE NOT
QUALITY CONTROLLED BY NWS.

THE REMARK "TC" DENOTES TEMPERATURE READING IN DEGREES CELSIUS.

GAZ001>058-301600-
NORTH GEORGIA

CITY           SKY/WX    TMP DP  RH WIND       PRES   REMARKS
ATLANTA        MOSUNNY   78  65  63 SE5       30.19S
ATHENS         SUNNY     80  66  62 E7        30.20S HAZE
CHAMBLEE       SUNNY     78  66  66 VRB6      30.19R
PEACHTREE CITY SUNNY     78  65  63 CALM      30.19S
ROME           SUNNY     75  66  73 S5        30.16S
WEST ATLANTA   SUNNY     77  65  66 S6        30.18S
GAINESVILLE    MOSUNNY   75  65  70 E6        30.23R
CARTERSVILLE   SUNNY     78  65  63 S9        30.17F


CITY           SKY/WX    TMP DP  RH WIND       PRES   REMARKS
DALTON*        MOSUNNY   75  66  73 SW5       30.18S
LAWRENCEVILLE* MOSUNNY   79  64  61 E5        30.18S
MARIETTA       MOSUNNY   77  67  69 S5        30.19S
KENNESAW*      MOSUNNY   79  66  65 S6        30.19S
BLAIRSVILLE*     N/A     76  37  24 S8        30.23S
$$

GAZ059>098-102>109-301600-
CENTRAL GEORGIA

CITY           SKY/WX    TMP DP  RH WIND       PRES   REMARKS
AUGUSTA-BUSH   SUNNY     81  66  60 MISG      30.18F
AUGUSTA-DANIEL MOSUNNY   81  65  58 VRB6      30.20F
COLUMBUS       SUNNY     79  65  62 VRB5      30.15F
MACON          MOSUNNY   78  67  68 VRB3      30.17F
ROBINS AFB     MOSUNNY   77  68  73 VRB5      30.17S


CITY           SKY/WX    TMP DP  RH WIND       PRES   REMARKS
LAGRANGE*      SUNNY     82  72  72 S6        30.17S
SYLVANIA*      CLOUDY    82  71  70 NE5       30.18F
MILLEDGEVILLE* MOSUNNY   79  70  73 CALM      30.18S
$$

GAZ099>101-110>166-301600-
SOUTH GEORGIA

CITY           SKY/WX    TMP DP  RH WIND       PRES   REMARKS
SAVANNAH       PTSUNNY   73  69  87 NE9       30.18R
VALDOSTA       MOSUNNY   80  68  66 S3        30.15R
ALMA           PTSUNNY   82  68  62 E6        30.16S
FT STEWART     PTSUNNY   84  69  60 VRB6      30.14S
ALBANY         MOSUNNY   83  66  56 VRB7      30.16S
HUNTER AFB     MOSUNNY   81  71  72 E9        30.14R
MOODY AFB      MOSUNNY   81  67  61 VRB3      30.14S
BRUNSWICK      PTSUNNY   77  70  78 SE6       30.16S


CITY           SKY/WX    TMP DP  RH WIND       PRES   REMARKS
BAINBRIDGE*    SUNNY     84  70  61 SE5       30.14S
MOULTRIE*      SUNNY     81  68  65 CALM      30.16S
VIDALIA*       SUNNY     81  68  65 CALM      30.17S
WAYCROSS*      PTSUNNY   81  70  70 E3        30.15S
DOUGLAS*       MOSUNNY   81  68  65 CALM      30.17S
$$



USA.gov is the U.S. government's official web portal to all federal, state and local government web resources and services.